Creek Data

    Home     View Charts     View Raw Data     Messages

ID Distance Battery Voltage Battery Current Internal Temp Internal Humidity External Temp Solar Input rssi snr Time Stamp Record
63827 14.5 3.84 0 47 48 45 5.1 -76 7 01/19/2026 11:45 AM 46569
63826 14.5 3.84 0 46 48 44 5.1 -76 8 01/19/2026 11:15 AM 46567
63825 14.5 4.00 0 45 47 44 5.1 -76 7 01/19/2026 11:00 AM 46566
63824 14.5 3.84 0 45 47 43 5.1 -76 7 01/19/2026 10:45 AM 46565
63823 14.5 3.85 0 44 47 43 5.1 -76 7 01/19/2026 10:15 AM 46563
63822 14.5 3.85 0 43 47 42 5.1 -76 8 01/19/2026 10:00 AM 46562
63821 14.5 3.87 0 43 47 41 5.1 -76 7 01/19/2026 09:45 AM 46561
63820 14.5 4.19 22 43 47 41 4.5 -76 7 01/19/2026 09:30 AM 46560
63819 14.4 4.02 42 42 47 41 4.5 -76 7 01/19/2026 09:15 AM 46559
63818 14.4 4.07 10 41 47 40 4.5 -77 8 01/19/2026 09:00 AM 46558
63817 14.4 3.83 -12 41 48 40 4.5 -76 8 01/19/2026 08:45 AM 46557
63816 14.4 3.98 5 40 48 40 4.5 -76 8 01/19/2026 08:30 AM 46556
63815 14.4 3.92 5 40 48 39 4.5 -76 7 01/19/2026 08:15 AM 46555
63814 14.4 3.75 0 39 48 39 4.5 -79 8 01/19/2026 08:00 AM 46554
63813 14.4 3.86 0 39 48 39 4.5 -79 8 01/19/2026 07:45 AM 46553
63812 14.4 3.68 -10 39 48 39 4.5 -79 8 01/19/2026 07:30 AM 46552
63811 14.4 3.71 -6 38 49 39 1.5 -79 8 01/19/2026 07:15 AM 46551
63810 14.4 3.71 -5 38 49 38 0.1 -79 8 01/19/2026 07:00 AM 46550
63809 14.4 3.72 -5 38 48 38 0 -76 8 01/19/2026 06:45 AM 46549
63808 14.4 3.71 -5 38 48 39 0 -76 8 01/19/2026 06:30 AM 46548
63807 14.4 3.71 -5 38 48 39 0 -76 8 01/19/2026 06:30 AM 46548
63806 14.4 3.71 -5 38 48 39 0 -76 8 01/19/2026 06:30 AM 46548
63805 14.4 3.71 -5 38 48 39 0 -76 8 01/19/2026 06:30 AM 46548
63804 14.4 3.71 -5 38 48 39 0 -76 8 01/19/2026 06:30 AM 46548
63803 14.4 3.72 -5 38 48 38 0 -75 8 01/19/2026 06:15 AM 46547